Cloud_Cover
100 100 100 100 100 100 100 100 100 100 100 100 81 95 86 100 100 100 100 100 100 65 74 99 100 100 100
100 100 100 100 100 100 100 100 100 100 100 100 91 98 92 69 93 100 100 100 99 100 100 100 100 100 100
100 100 100 100 100 100 100 100 100 97 100 97 21 19 95 93 95 100 100 100 100 100 97 27 71 97 86
100 100 100 100 100 100 100 100 100 87 95 16 5 5 5 5 18 24 88 61 26 94 27 22 72 39 25
100 100 100 100 100 85 98 99 87 67 69 13 7 27 24 23 16 5 32 12 5 5 6 30 87 97 100
100 100 100 100 100 99 88 99 100 96 82 81 8 9 29 95 68 18 5 5 37 29 45 100 100 100 100
100 91 96 98 100 100 54 39 49 76 17 100 70 52 5 4 4 5 5 18 27 17 72 75 100 100 100
92 74 94 92 97 100 99 100 97 94 79 14 5 5 0 0 2 4 5 5 5 5 5 19 100 100 100
100 78 96 100 100 100 100 99 52 5 5 5 3 5 5 0 0 0 3 5 5 5 5 6 72 100 100
100 100 100 100 99 86 18 5 82 87 24 5 6 34 67 3 0 0 0 2 5 5 5 6 90 99 100
94 63 19 4 5 5 5 51 83 100 48 100 36 77 94 94 5 5 5 4 4 5 5 5 8 80 100
0 0 4 5 6 96 95 79 81 94 94 100 98 94 100 97 96 7 5 5 29 7 46 56 62 24 95
4 5 5 5 5 5 82 100 100 97 63 13 93 93 100 100 100 96 99 66 40 8 12 78 33 74 87
5 5 5 5 5 21 97 100 100 100 64 5 40 99 100 100 100 98 94 100 50 76 62 82 14 32 100
91 92 93 96 98 96 100 100 100 100 100 93 88 100 100 100 100 91 100 100 100 95 98 100 82 100 90
100 100 100 100 100 100 100 100 100 100 100 82 98 100 90 72 78 87 92 100 97 100 100 100 98 95 83
100 100 100 100 100 100 100 100 100 100 100 100 100 100 100 100 31 97 24 19 99 97 58 87 99 94 88